Weather History for Klawock, AK

Change the Weather History Date:

Tuesday, February 12, 2013

  Actual Average Record
Temperature  
Mean Temperature 36 °F -  
Max Temperature 41 °F 39 °F 48 °F (2004)
Min Temperature 30 °F 29 °F 19 °F (2000)
Degree Days  
Heating Degree Days 30    
Moisture  
Dew Point 33 °F    
Average Humidity 87    
Maximum Humidity 97    
Minimum Humidity 70    
Precipitation  
Precipitation 0.27 in - - ()
Sea Level Pressure  
Sea Level Pressure 29.83 in    
Wind  
Wind Speed 3 mph (North)    
Max Wind Speed 8 mph    
Max Gust Speed 20 mph    
Visibility 10 miles    
Events Rain    
Averages and records for this station are not official NWS values.
T = Trace of Precipitation, MM = Missing Value Source: NWS Daily Summary

Daily Weather History Graph

Daily Weather History Graph

Search for Another Location

Airport:

Trip Planner

Search our weather history database for the weather conditions in past years. The results will help you decide how hot, cold, wet, or windy it might be!

Date:

Astronomy

Feb. 12, 2013 Rise Set
Actual Time 7:21 AM AKST 4:51 PM AKST
Civil Twilight 6:43 AM AKST 5:30 PM AKST
Nautical Twilight 6:00 AM AKST 6:13 PM AKST
Astronomical Twilight 5:17 AM AKST 6:56 PM AKST
Moon 7:45 AM AKST (2/12) 8:44 PM AKST (2/12)
Length of Visible Light 10h 47m
Length of Day
9h 29m
Waxing Crescent, 8% of the Moon is Illuminated
Feb 12
Waxing Crescent
Feb 17
First Quarter
Feb 25
Full
Mar 4
Last Quarter
Mar 11
New

Hourly Weather History & Observations

Time (AKST) Temp. Windchill Dew Point Humidity Pressure Visibility Wind Dir Wind Speed Gust Speed Precip Events Conditions
12:53 AM 36.0 °F - 35.1 °F 97% 29.70 in 7.0 mi Calm Calm - 0.05 in Rain Light Rain
1:53 AM 36.0 °F 33.3 °F 35.1 °F 97% 29.68 in 8.0 mi ENE 3.5 mph - 0.05 in Rain Light Rain
3:53 AM 36.0 °F 33.3 °F 34.0 °F 93% 29.64 in 8.0 mi NE 3.5 mph - 0.04 in Rain Light Rain
4:53 AM 36.0 °F 31.1 °F 34.0 °F 93% 29.64 in 9.0 mi NE 5.8 mph - 0.05 in Rain Light Rain
5:32 AM 35.6 °F 32.8 °F 33.8 °F 93% 29.63 in 10.0 mi NNE 3.5 mph - 0.02 in Rain Light Rain
5:53 AM 36.0 °F 32.1 °F 34.0 °F 93% 29.63 in 10.0 mi NNE 4.6 mph - 0.03 in Rain Light Rain
6:25 AM 35.6 °F 29.9 °F 33.8 °F 93% 29.62 in 10.0 mi North 6.9 mph - 0.01 in Rain Light Rain
6:53 AM 35.1 °F 31.0 °F 34.0 °F 96% 29.63 in 10.0 mi NNE 4.6 mph - 0.01 in Rain Light Rain
7:53 AM 35.1 °F - 34.0 °F 96% 29.64 in 10.0 mi Calm Calm - 0.00 in   Overcast
8:08 AM 35.6 °F 29.2 °F 33.8 °F 93% 29.63 in 10.0 mi NE 8.1 mph - N/A   Mostly Cloudy
8:53 AM 36.0 °F 30.3 °F 34.0 °F 93% 29.66 in 10.0 mi North 6.9 mph - N/A   Partly Cloudy
9:23 AM 35.6 °F 32.8 °F 33.8 °F 93% 29.68 in 10.0 mi WNW 3.5 mph - N/A   Mostly Cloudy
9:53 AM 37.0 °F 31.6 °F 35.1 °F 93% 29.70 in 10.0 mi NNW 6.9 mph - N/A   Overcast
10:53 AM 37.9 °F 33.5 °F 35.1 °F 89% 29.74 in 10.0 mi NNW 5.8 mph - N/A   Overcast
11:53 AM 37.9 °F 34.4 °F 35.1 °F 89% 29.79 in 10.0 mi WNW 4.6 mph - N/A   Mostly Cloudy
12:53 PM 41.0 °F 37.1 °F 33.1 °F 73% 29.83 in 10.0 mi WNW 5.8 mph - N/A   Partly Cloudy
1:53 PM 41.0 °F 39.0 °F 32.0 °F 70% 29.87 in 10.0 mi Variable 3.5 mph - N/A   Clear
2:28 PM 41.0 °F 36.4 °F 33.8 °F 76% 29.90 in 10.0 mi Variable 6.9 mph - N/A   Mostly Cloudy
2:53 PM 39.9 °F 35.1 °F 33.1 °F 77% 29.92 in 10.0 mi WSW 6.9 mph 19.6 mph N/A   Scattered Clouds
3:53 PM 37.9 °F 34.4 °F 30.9 °F 76% 29.97 in 10.0 mi Variable 4.6 mph - N/A   Clear
4:53 PM 37.0 °F - 30.0 °F 76% 30.01 in 10.0 mi Calm Calm - N/A   Clear
5:53 PM 33.1 °F - 30.9 °F 92% 30.03 in 10.0 mi Calm Calm - N/A   Clear
6:53 PM 30.9 °F 27.5 °F 28.9 °F 92% 30.07 in 10.0 mi South 3.5 mph - N/A   Clear
7:53 PM 36.0 °F - 30.9 °F 82% 30.09 in 10.0 mi Calm Calm - N/A   Overcast
8:53 PM 37.9 °F - 28.9 °F 70% 30.12 in 10.0 mi Calm Calm - N/A   Overcast
9:53 PM 36.0 °F - 30.0 °F 79% 30.14 in 10.0 mi Calm Calm - N/A   Overcast
10:53 PM 35.1 °F 32.2 °F 30.9 °F 85% 30.16 in 10.0 mi South 3.5 mph - N/A   Overcast
11:53 PM 34.0 °F - 33.1 °F 96% 30.19 in 8.0 mi Calm Calm - 0.04 in Rain Light Rain